• In Hungary
  • List of Countries
  • For 7 days
  • Water Temperature
  • Satellite Maps
  • Weather Map
  • News
  • Weather Widgets
  • user-avatar
    Login

    Hourly Weather Dikhil

    Today, 26 September, Wednesday

    Time Temperature Precipitation Wind Pressure Humidity
    00:00 +30°C° 0.1 mm 4 mps 716 mmHg 66%
    01:00 +30°C° 0 mm 4 mps 716 mmHg 68%
    02:00 +29°C° 0 mm 3 mps 716 mmHg 69%
    03:00 +29°C° 0 mm 3 mps 715 mmHg 71%
    04:00 +29°C° 0 mm 3 mps 716 mmHg 71%
    05:00 +28°C° 0 mm 3 mps 716 mmHg 72%
    06:00 +28°C° 0 mm 3 mps 716 mmHg 73%
    07:00 +29°C° 0 mm 3 mps 716 mmHg 66%
    08:00 +30°C° 0 mm 3 mps 717 mmHg 59%
    09:00 +31°C° 0 mm 3 mps 717 mmHg 52%
    10:00 +34°C° 0 mm 3 mps 717 mmHg 46%
    11:00 +35°C° 0 mm 3 mps 717 mmHg 40%
    12:00 +37°C° 0 mm 2 mps 717 mmHg 33%
    13:00 +37°C° 0 mm 3 mps 716 mmHg 32%
    14:00 +38°C° 0 mm 3 mps 715 mmHg 30%
    15:00 +39°C° 0 mm 3 mps 715 mmHg 28%
    16:00 +38°C° 0 mm 4 mps 715 mmHg 30%
    17:00 +38°C° 0 mm 4 mps 714 mmHg 33%
    18:00 +37°C° 0 mm 4 mps 714 mmHg 35%
    19:00 +36°C° 0 mm 4 mps 715 mmHg 38%
    20:00 +35°C° 0 mm 4 mps 715 mmHg 42%
    21:00 +35°C° 0 mm 4 mps 715 mmHg 45%
    22:00 +34°C° 0 mm 4 mps 716 mmHg 49%
    23:00 +33°C° 0 mm 4 mps 716 mmHg 53%

    Tomorrow, 27 September, Thursday

    Time Temperature Precipitation Wind Pressure Humidity
    00:00 +32°C° 0 mm 4 mps 716 mmHg 57%
    01:00 +32°C° 0 mm 4 mps 715 mmHg 59%
    02:00 +30°C° 0 mm 3 mps 715 mmHg 61%
    03:00 +29°C° 0 mm 3 mps 715 mmHg 63%
    04:00 +29°C° 0 mm 3 mps 715 mmHg 63%
    05:00 +29°C° 0 mm 3 mps 715 mmHg 63%
    06:00 +29°C° 0 mm 3 mps 716 mmHg 63%
    07:00 +30°C° 0 mm 3 mps 716 mmHg 56%
    08:00 +31°C° 0 mm 2 mps 717 mmHg 50%
    09:00 +34°C° 0 mm 2 mps 717 mmHg 43%
    10:00 +35°C° 0 mm 2 mps 717 mmHg 38%
    11:00 +36°C° 0 mm 2 mps 717 mmHg 33%
    12:00 +38°C° 0 mm 2 mps 717 mmHg 28%
    13:00 +38°C° 0 mm 3 mps 716 mmHg 27%
    14:00 +39°C° 0 mm 3 mps 715 mmHg 25%
    15:00 +40°C° 0 mm 3 mps 714 mmHg 24%
    16:00 +40°C° 0 mm 4 mps 714 mmHg 25%
    17:00 +40°C° 0 mm 4 mps 714 mmHg 27%
    18:00 +38°C° 0 mm 4 mps 714 mmHg 28%
    19:00 +37°C° 0 mm 4 mps 715 mmHg 31%
    20:00 +37°C° 0 mm 4 mps 715 mmHg 34%
    21:00 +36°C° 0 mm 4 mps 716 mmHg 37%
    22:00 +35°C° 0 mm 4 mps 716 mmHg 41%
    23:00 +34°C° 0 mm 4 mps 716 mmHg 45%

    Day after tomorrow, 28 September, Friday

    Time Temperature Precipitation Wind Pressure Humidity
    00:00 +33°C° 0 mm 4 mps 715 mmHg 49%
    01:00 +32°C° 0 mm 4 mps 715 mmHg 52%
    02:00 +31°C° 0 mm 3 mps 715 mmHg 55%
    03:00 +30°C° 0 mm 3 mps 714 mmHg 58%
    04:00 +30°C° 0 mm 3 mps 715 mmHg 59%
    05:00 +29°C° 0 mm 2 mps 715 mmHg 60%
    06:00 +29°C° 0 mm 2 mps 715 mmHg 62%
    07:00 +30°C° 0 mm 2 mps 716 mmHg 54%
    08:00 +32°C° 0 mm 2 mps 717 mmHg 46%
    09:00 +34°C° 0 mm 2 mps 717 mmHg 38%
    10:00 +35°C° 0 mm 2 mps 717 mmHg 33%
    11:00 +37°C° 0 mm 3 mps 717 mmHg 28%
    12:00 +38°C° 0 mm 3 mps 716 mmHg 22%
    13:00 +39°C° 0 mm 3 mps 716 mmHg 21%
    14:00 +41°C° 0 mm 4 mps 715 mmHg 19%
    15:00 +42°C° 0 mm 4 mps 714 mmHg 18%
    16:00 +41°C° 0 mm 4 mps 714 mmHg 18%
    17:00 +41°C° 0 mm 4 mps 714 mmHg 19%
    18:00 +40°C° 0 mm 4 mps 714 mmHg 19%
    19:00 +38°C° 0 mm 4 mps 715 mmHg 22%
    20:00 +37°C° 0 mm 4 mps 715 mmHg 25%
    21:00 +36°C° 0 mm 4 mps 715 mmHg 28%
    22:00 +36°C° 0 mm 4 mps 715 mmHg 31%
    23:00 +35°C° 0 mm 4 mps 715 mmHg 33%

    29 September, Saturday

    Time Temperature Precipitation Wind Pressure Humidity
    00:00 +34°C° 0 mm 3 mps 715 mmHg 36%
    01:00 +33°C° 0 mm 3 mps 715 mmHg 37%
    02:00 +33°C° 0 mm 3 mps 714 mmHg 39%
    03:00 +31°C° 0 mm 3 mps 714 mmHg 41%
    04:00 +31°C° 0 mm 2 mps 714 mmHg 43%
    05:00 +30°C° 0 mm 2 mps 715 mmHg 45%
    06:00 +30°C° 0 mm 2 mps 715 mmHg 47%
    07:00 +31°C° 0 mm 2 mps 716 mmHg 41%
    08:00 +34°C° 0 mm 3 mps 717 mmHg 34%
    09:00 +35°C° 0 mm 3 mps 717 mmHg 28%
    10:00 +36°C° 0 mm 3 mps 717 mmHg 25%
    11:00 +37°C° 0 mm 3 mps 716 mmHg 21%
    12:00 +39°C° 0 mm 3 mps 716 mmHg 18%
    13:00 +40°C° 0 mm 4 mps 715 mmHg 18%
    14:00 +41°C° 0 mm 4 mps 714 mmHg 17%
    15:00 +41°C° 0 mm 5 mps 714 mmHg 17%
    16:00 +40°C° 0 mm 5 mps 714 mmHg 19%
    17:00 +40°C° 0 mm 5 mps 714 mmHg 21%
    18:00 +39°C° 0 mm 6 mps 714 mmHg 22%
    19:00 +37°C° 0 mm 5 mps 715 mmHg 25%
    20:00 +36°C° 0 mm 5 mps 715 mmHg 27%
    21:00 +35°C° 0 mm 4 mps 716 mmHg 30%
    22:00 +34°C° 0 mm 4 mps 715 mmHg 35%
    23:00 +33°C° 0 mm 5 mps 715 mmHg 40%

    30 September, Sunday

    Time Temperature Precipitation Wind Pressure Humidity
    00:00 +32°C° 0 mm 5 mps 715 mmHg 45%
    01:00 +32°C° 0 mm 4 mps 715 mmHg 51%
    02:00 +30°C° 0 mm 4 mps 714 mmHg 57%
    03:00 +29°C° 0 mm 4 mps 714 mmHg 63%
    04:00 +29°C° 0 mm 3 mps 715 mmHg 64%
    05:00 +29°C° 0 mm 3 mps 715 mmHg 66%
    06:00 +29°C° 0 mm 3 mps 716 mmHg 67%
    07:00 +30°C° 0 mm 4 mps 716 mmHg 60%
    08:00 +32°C° 0 mm 4 mps 717 mmHg 53%
    09:00 +33°C° 0 mm 5 mps 718 mmHg 46%
    10:00 +35°C° 0 mm 5 mps 717 mmHg 40%
    11:00 +36°C° 0 mm 5 mps 717 mmHg 34%
    12:00 +39°C° 0 mm 5 mps 716 mmHg 27%
    13:00 +39°C° 0 mm 6 mps 715 mmHg 27%
    14:00 +40°C° 0 mm 6 mps 715 mmHg 26%
    15:00 +40°C° 0 mm 7 mps 714 mmHg 25%
    16:00 +39°C° 0 mm 7 mps 714 mmHg 29%
    17:00 +38°C° 0 mm 7 mps 715 mmHg 33%
    18:00 +36°C° 0 mm 6 mps 715 mmHg 36%
    19:00 +35°C° 0 mm 6 mps 715 mmHg 40%
    20:00 +34°C° 0 mm 5 mps 716 mmHg 44%
    21:00 +33°C° 0 mm 5 mps 716 mmHg 47%
    22:00 +33°C° 0 mm 4 mps 716 mmHg 50%
    23:00 +32°C° 0 mm 4 mps 716 mmHg 54%

    1 October, Monday

    Time Temperature Precipitation Wind Pressure Humidity
    00:00 +30°C° 0 mm 4 mps 715 mmHg 57%
    01:00 +30°C° 0 mm 3 mps 715 mmHg 59%
    02:00 +30°C° 0 mm 3 mps 715 mmHg 61%
    03:00 +29°C° 0 mm 3 mps 714 mmHg 63%
    04:00 +29°C° 0 mm 3 mps 715 mmHg 64%
    05:00 +29°C° 0 mm 2 mps 715 mmHg 65%
    06:00 +29°C° 0 mm 2 mps 716 mmHg 66%
    07:00 +30°C° 0 mm 3 mps 716 mmHg 61%
    08:00 +31°C° 0 mm 3 mps 717 mmHg 55%
    09:00 +33°C° 0 mm 4 mps 717 mmHg 49%
    10:00 +35°C° 0 mm 4 mps 717 mmHg 44%
    11:00 +36°C° 0 mm 4 mps 716 mmHg 39%
    12:00 +37°C° 0 mm 4 mps 716 mmHg 34%
    13:00 +39°C° 0 mm 5 mps 715 mmHg 32%
    14:00 +39°C° 0 mm 5 mps 714 mmHg 30%
    15:00 +40°C° 0 mm 5 mps 714 mmHg 28%
    16:00 +39°C° 0 mm 5 mps 714 mmHg 29%
    17:00 +39°C° 0 mm 5 mps 714 mmHg 31%
    18:00 +37°C° 0 mm 5 mps 714 mmHg 32%
    19:00 +36°C° 0 mm 5 mps 715 mmHg 35%
    20:00 +36°C° 0 mm 4 mps 715 mmHg 38%
    21:00 +35°C° 0 mm 4 mps 715 mmHg 41%
    22:00 +34°C° 0 mm 4 mps 715 mmHg 44%
    23:00 +34°C° 0 mm 4 mps 715 mmHg 47%
    Show more